Location: Bagnolo San Vito
(45.0833°N, 10.8833°E)
Time: 23:45:59
(UTC+00:00)

FALCON 9 DEB - Pass Details

Date: 03 March 2021
Orbit: 424 x 435 km, 53.0° (Epoch: 17 April)

Event Time Altitude Azimuth Distance (km) Brightness Sun altitude
Rises 18:18:14 0° 303° (WNW) 2,406 8.0 -13.4°
Reaches altitude 10° 18:20:23 10° 308° (NW) 1,533 6.8 -13.8°
Maximum altitude 18:23:46 54° 27° (NNE) 528 3.3 -14.4°
Enters shadow 18:25:07 31° 90° (E) 782 3.8 -14.6°
